Location: Hylvaty SDH
(49.9612°N, 16.4057°E)
Time: 12:10:55
(UTC+01:00)

A-11 Canister half - Pass Details

Date: 02 October 2020
Orbit: 1526 x 1683 km, 47.3° (Epoch: 28 October)

Event Time Altitude Azimuth Distance (km) Brightness Sun altitude
Rises 04:05:12 0° 286° (WNW) 4,715 - -27.3°
Reaches altitude 10° 04:08:21 10° 281° (W) 3,746 - -26.9°
Exits shadow 04:15:32 44° 239° (WSW) 2,076 9.2 -25.9°
Maximum altitude 04:17:17 48° 211° (SSW) 1,985 9.2 -25.6°
Drops below altitude 10° 04:26:30 10° 141° (SE) 3,852 11.2 -24.3°
Sets 04:29:48 0° 136° (SE) 4,857 11.9 -23.8°
